Location: San Antonio
(29.4240°N, 98.4930°W)
Time: 10:21:56
(UTC-06:00)

Transit 4A - Pass Details

Date: 19 December 2025
Orbit: 867 x 974 km, 66.8° (Epoch: 17 January)

Event Time Altitude Azimuth Distance (km) Brightness Sun altitude
Rises 18:53:09 0° 248° (WSW) 3,443 12.8 -15.7°
Reaches altitude 10° 18:56:40 10° 270° (W) 2,505 11.3 -16.4°
Maximum altitude 19:00:04 16° 307° (NW) 2,120 10.2 -17.1°
Drops below altitude 10° 19:03:30 10° 343° (NNW) 2,517 10.2 -17.9°
Sets 19:07:05 0° 5° (N) 3,469 10.7 -18.6°
